2022-098Q (53458 NORAD) Tracking and Keplerian Element Data

This shows tracking and keplerian element data for the satellite.

Feedback or suggestion? Click here.




ElementValue
Catalog53458
Name2022-098Q
Epoch Orbit722
Epoch Day270.1652387
Epoch Year2022
RAAN5.7172
Inclination97.5311
Eccentricity0.0012646
Argument of Perigee117.84
Mean Anonmoly332.9799
Mean Motion15.10570978
Decay Rate6.718E-05
L11 53458U 22098Q 22270.16523870 .00006718 00000+0 41008-3 0 9998
L22 53458 97.5311 5.7172 0012646 117.8400 332.9799 15.10570978 7221

Live tracking and technical data element details for 2022-098Q (NORAD 53458). 2022-098Q can be tracked NOW for your location showing map with azimuth and elevation plus other details from your city location.

Track the satellite on the map from your city or location and see movement details for azimuth, elevation, latitude, longitude, range, height, and movement on the map or in text.







IsCatalogInMostPopularTable: catalog: 53458, numindb: 3
Update: records affected: 1



GetName: 53458 2022-098Q

Hit Count: updated at: Thu, 29 Sep 2022 10:55:47 GMT